Tracking 19562 objects as of 22-Mar-2019
HD Live streaming from Space Station
objects crossing your sky now

LEMUR 2 DAVEWILSON

Track LEMUR 2 DAVEWILSON now!
10-day predictions
LEMUR 2 DAVEWILSON is classified as:


NORAD ID: 43126
Int'l Code: 2018-004R
Perigee: 494.9 km
Apogee: 508.0 km
Inclination: 97.5 °
Period: 94.5 minutes
Semi major axis: 6872 km
RCS: Unknown
Launch date: January 12, 2018
Source: United States (US)
Launch site: SRIHARIKOTA (SRI)
aabbcc
Your satellite tracking list
Your tracking list is empty




NASA's NSSDC Master Catalog

Two Line Element Set (TLE):
1 43126U 18004R   19081.16754571  .00001996  00000-0  85810-4 0  9995
2 43126  97.4983 149.3001 0009535 194.0383 166.0590 15.23819406 66037
Source of the keplerian elements: AFSPC